Hutchinson, KS

8:11 AM CDT on July 28, 2017 (GMT -0500)
Hutchinson Municipal

Weather History for KHUT - March, 2014

Change the Weather History Date:

Sunday, March 2, 2014

  Actual Average Record
Temperature  
Mean Temperature 5 °F -  
Max Temperature 7 °F 46 °F 70 °F (2016)
Min Temperature 3 °F 23 °F 3 °F (2014)
Degree Days  
Heating Degree Days 60    
Moisture  
Dew Point -3 °F    
Average Humidity 71    
Maximum Humidity 80    
Minimum Humidity 55    
Precipitation  
Precipitation 0.16 in - - ()
Sea Level Pressure  
Sea Level Pressure 30.47 in    
Wind  
Wind Speed 17 mph (NNE)    
Max Wind Speed 21 mph    
Max Gust Speed 32 mph    
Visibility 4 miles    
Events Snow    
Averages and records for this station are not official NWS values.
T = Trace of Precipitation, MM = Missing Value Source: NWS Daily Summary

Daily Weather History Graph

Daily Weather History Graph

Search for Another Location

Airport or City:

Trip Planner

Search our weather history database for the weather conditions in past years. The results will help you decide how hot, cold, wet, or windy it might be!

Date:

Astronomy

Mar. 02, 2014 Rise Set
Actual Time 7:01 AM CST 6:25 PM CST
Civil Twilight 6:35 AM CST 6:52 PM CST
Nautical Twilight 6:04 AM CST 7:22 PM CST
Astronomical Twilight 5:34 AM CST 7:53 PM CST
Moon 7:35 AM CST (3/2) 8:21 PM CST (3/2)
Length of Visible Light 12h 17m
Length of Day
11h 24m
Waxing Crescent, 3% of the Moon is Illuminated
Mar 2
Waxing Crescent
Mar 8
First Quarter
Mar 16
Full
Mar 23
Last Quarter
Mar 30
New

Hourly Weather History & Observations

Time (CST) Temp. Windchill Dew Point Humidity Pressure Visibility Wind Dir Wind Speed Gust Speed Precip Events Conditions
12:01 AM 6.1 °F -14.3 °F 1.0 °F 80% 30.35 in 1.2 mi NNE 20.7 mph 28.8 mph 0.00 in Snow Light Snow
12:41 AM 6.1 °F -12.2 °F -0.0 °F 76% 30.31 in 3.0 mi NNE 16.1 mph 27.6 mph 0.01 in Snow Light Snow
12:52 AM 6.1 °F -11.6 °F -0.9 °F 73% 30.38 in 9.0 mi NNE 15.0 mph 21.9 mph 0.01 in   Overcast
1:52 AM 6.1 °F -12.2 °F -0.9 °F 73% 30.40 in 6.0 mi NNE 16.1 mph 32.2 mph 0.00 in   Overcast
2:26 AM 5.0 °F -15.2 °F -2.0 °F 73% 30.35 in 6.0 mi NNE 19.6 mph 28.8 mph 0.01 in   Haze
2:37 AM 5.0 °F -14.7 °F -0.9 °F 76% 30.34 in 3.0 mi North 18.4 mph 27.6 mph 0.01 in   Haze
2:52 AM 5.0 °F -13.0 °F -2.0 °F 73% 30.43 in 5.0 mi NNE 15.0 mph 26.5 mph 0.01 in   Overcast
3:52 AM 3.9 °F -15.6 °F -2.9 °F 73% 30.45 in 10.0 mi NNE 17.3 mph 24.2 mph 0.00 in   Overcast
4:52 AM 3.9 °F -17.1 °F -2.9 °F 73% 30.46 in 6.0 mi NNE 20.7 mph 25.3 mph 0.00 in   Overcast
5:52 AM 3.9 °F -13.7 °F -2.9 °F 73% 30.49 in 9.0 mi North 13.8 mph 28.8 mph 0.01 in   Overcast
6:52 AM 3.9 °F -16.6 °F -2.9 °F 73% 30.49 in 6.0 mi NNE 19.6 mph 27.6 mph 0.00 in Snow Light Snow
7:52 AM 3.9 °F -14.3 °F -2.9 °F 73% 30.49 in 2.5 mi NNE 15.0 mph - 0.04 in Snow Light Snow
8:04 AM 3.9 °F -13.7 °F -2.9 °F 73% 30.39 in 1.0 mi NNE 13.8 mph 25.3 mph 0.02 in Snow Light Snow
8:11 AM 3.9 °F -16.6 °F -2.9 °F 73% 30.44 in 0.8 mi North 19.6 mph 25.3 mph 0.04 in Snow Light Snow
8:19 AM 3.9 °F -15.6 °F -2.9 °F 73% 30.42 in 1.5 mi NNE 17.3 mph 25.3 mph 0.05 in Snow Light Snow
8:35 AM 3.0 °F -17.8 °F -2.9 °F 76% 30.43 in 0.5 mi North 19.6 mph 29.9 mph 0.07 in Snow Snow
8:52 AM 3.0 °F -16.1 °F -2.9 °F 76% 30.51 in 0.5 mi NNE 16.1 mph 25.3 mph 0.09 in Snow Snow
9:17 AM 3.0 °F -16.7 °F -2.9 °F 76% 30.43 in 0.5 mi NNE 17.3 mph 27.6 mph 0.00 in Snow Snow
9:28 AM 3.0 °F -15.5 °F -2.9 °F 76% 30.46 in 0.2 mi North 15.0 mph 25.3 mph 0.00 in Snow Heavy Snow
9:52 AM 3.0 °F -14.8 °F -2.9 °F 76% 30.55 in 0.2 mi NNE 13.8 mph 21.9 mph 0.00 in Snow Heavy Snow
10:21 AM 3.0 °F -14.8 °F -2.0 °F 80% 30.48 in 0.2 mi NNE 13.8 mph - 0.00 in Snow Heavy Snow
10:52 AM 3.0 °F -17.8 °F -2.9 °F 76% 30.52 in 0.2 mi NNE 19.6 mph 29.9 mph 0.00 in   Haze
11:04 AM 3.0 °F -16.1 °F -2.9 °F 76% 30.44 in 0.5 mi NNE 16.1 mph - N/A   Haze
11:12 AM 3.0 °F -15.5 °F -4.0 °F 73% 30.44 in 0.5 mi NNE 15.0 mph 25.3 mph 0.00 in Snow Snow
11:30 AM 3.9 °F -15.6 °F -2.9 °F 73% 30.46 in 1.0 mi North 17.3 mph 26.5 mph 0.00 in Snow Snow
11:45 AM 3.9 °F -15.0 °F -4.0 °F 70% 30.46 in 1.5 mi NNE 16.1 mph 25.3 mph 0.00 in Snow Light Snow
11:52 AM 3.9 °F -16.6 °F -4.0 °F 70% 30.54 in 1.8 mi NNE 19.6 mph 26.5 mph 0.00 in Snow Light Snow
12:02 PM 3.9 °F -15.0 °F -4.0 °F 70% 30.46 in 3.0 mi North 16.1 mph 26.5 mph 0.00 in Snow Light Snow
12:52 PM 5.0 °F -14.7 °F -4.0 °F 66% 30.53 in 8.0 mi North 18.4 mph 25.3 mph 0.00 in   Overcast
1:52 PM 5.0 °F -14.7 °F -4.0 °F 66% 30.52 in 10.0 mi North 18.4 mph 26.5 mph N/A   Overcast
2:52 PM 6.1 °F -13.3 °F -4.0 °F 63% 30.50 in 10.0 mi North 18.4 mph 26.5 mph N/A   Overcast
3:52 PM 6.1 °F -12.8 °F -2.9 °F 67% 30.47 in 9.0 mi NNE 17.3 mph 27.6 mph N/A   Overcast
4:52 PM 7.0 °F -11.6 °F -4.0 °F 61% 30.45 in 10.0 mi North 17.3 mph 27.6 mph 0.00 in   Overcast
5:52 PM 7.0 °F -9.1 °F -5.1 °F 58% 30.50 in 10.0 mi NNE 12.7 mph - N/A   Overcast
6:52 PM 7.0 °F -7.5 °F -5.1 °F 58% 30.54 in 6.0 mi North 10.4 mph - 0.00 in Snow Light Snow
7:40 PM 5.0 °F -13.6 °F -4.0 °F 66% 30.44 in 2.0 mi North 16.1 mph - 0.00 in Snow Light Snow
7:52 PM 5.0 °F -14.2 °F -2.9 °F 70% 30.53 in 2.0 mi North 17.3 mph 23.0 mph 0.00 in Snow Light Snow
8:30 PM 3.9 °F -13.0 °F -2.0 °F 76% 30.45 in 1.8 mi NNE 12.7 mph 21.9 mph 0.00 in Snow Light Snow
8:47 PM 3.2 °F -15.9 °F -2.2 °F 78% 30.46 in 0.8 mi North 16.1 mph 23.0 mph 0.00 in Snow Light Snow
8:52 PM 3.9 °F -14.3 °F -2.0 °F 76% 30.55 in 0.8 mi NNE 15.0 mph - 0.00 in Snow Light Snow
9:10 PM 3.9 °F -13.7 °F -2.9 °F 73% 30.47 in 1.0 mi North 13.8 mph - 0.00 in Snow Light Snow
9:21 PM 3.9 °F -12.2 °F -2.9 °F 73% 30.47 in 1.5 mi North 11.5 mph - 0.00 in Snow Light Snow
9:30 PM 5.0 °F -10.8 °F -5.1 °F 63% 30.47 in 3.0 mi North 11.5 mph - 0.00 in Snow Light Snow
9:52 PM 5.0 °F -13.6 °F -6.0 °F 61% 30.56 in 9.0 mi North 16.1 mph 23.0 mph 0.00 in   Overcast
10:52 PM 6.1 °F -10.9 °F -7.1 °F 55% 30.57 in 10.0 mi North 13.8 mph - N/A   Mostly Cloudy
11:52 PM 6.1 °F -8.7 °F -6.0 °F 58% 30.58 in 10.0 mi North 10.4 mph - N/A   Partly Cloudy